Location: Campillo
(40.8621°N, 4.2488°W)
Time: 13:03:24
(UTC+00:00)

SJ-6B - Pass Details

Date: 30 September 2021
Orbit: 508 x 581 km, 97.6° (Epoch: 26 October)

Event Time Altitude Azimuth Distance (km) Brightness Sun altitude
Exits shadow 19:18:49 23° 66° (ENE) 1,237 4.1 -15.6°
Drops below altitude 10° 19:21:55 10° 16° (NNE) 1,877 5.5 -16.2°
Sets 19:24:21 0° 2° (N) 2,767 6.5 -16.6°
